TimeEST,TemperatureF,Dew PointF,Humidity,Sea Level PressureIn,VisibilityMPH,Wind Direction,Wind SpeedMPH,Gust SpeedMPH,PrecipitationIn,Events,Conditions,WindDirDegrees,DateUTC
12:04 AM,37.4,28.4,70,29.84,10.0,ENE,10.4,-,N/A,,Clear,70,2013-03-06 05:04:00
12:24 AM,37.4,28.4,70,29.84,10.0,East,8.1,-,N/A,,Scattered Clouds,80,2013-03-06 05:24:00
12:44 AM,37.4,28.4,70,29.84,10.0,East,11.5,-,N/A,,Mostly Cloudy,80,2013-03-06 05:44:00
1:04 AM,35.6,32.0,87,29.82,3.0,East,12.7,20.7,N/A,,Overcast,90,2013-03-06 06:04:00
1:24 AM,33.8,32.0,93,29.81,2.0,ENE,10.4,-,N/A,,Overcast,70,2013-03-06 06:24:00
1:44 AM,33.8,33.8,100,29.78,3.0,ENE,10.4,18.4,N/A,,Overcast,70,2013-03-06 06:44:00
2:04 AM,33.8,33.8,100,29.75,4.0,ENE,17.3,23.0,N/A,,Overcast,70,2013-03-06 07:04:00
2:24 AM,35.6,33.8,93,29.74,4.0,ENE,13.8,19.6,N/A,,Overcast,70,2013-03-06 07:24:00
2:44 AM,35.6,33.8,93,29.73,5.0,ENE,13.8,19.6,N/A,,Overcast,70,2013-03-06 07:44:00
3:04 AM,35.6,35.6,100,29.72,7.0,East,16.1,19.6,N/A,,Overcast,80,2013-03-06 08:04:00
3:24 AM,35.6,35.6,100,29.71,5.0,East,13.8,20.7,N/A,,Overcast,80,2013-03-06 08:24:00
3:44 AM,35.6,35.6,100,29.68,7.0,ENE,10.4,17.3,N/A,,Overcast,70,2013-03-06 08:44:00
4:04 AM,35.6,35.6,100,29.66,7.0,ENE,13.8,21.9,N/A,,Overcast,70,2013-03-06 09:04:00
4:24 AM,35.6,35.6,100,29.66,5.0,ENE,16.1,25.3,N/A,,Overcast,60,2013-03-06 09:24:00
4:44 AM,35.6,35.6,100,29.66,5.0,ENE,16.1,20.7,N/A,,Overcast,70,2013-03-06 09:44:00
5:04 AM,37.4,35.6,93,29.66,5.0,ENE,15.0,24.2,N/A,,Overcast,70,2013-03-06 10:04:00
5:24 AM,37.4,35.6,93,29.64,5.0,ENE,16.1,27.6,N/A,,Overcast,70,2013-03-06 10:24:00
5:44 AM,37.4,35.6,93,29.65,4.0,ENE,16.1,24.2,N/A,,Overcast,70,2013-03-06 10:44:00
6:04 AM,37.4,35.6,93,29.64,2.5,ENE,15.0,23.0,N/A,,Overcast,70,2013-03-06 11:04:00
6:24 AM,37.4,35.6,93,29.64,4.0,ENE,16.1,24.2,N/A,,Overcast,70,2013-03-06 11:24:00
6:44 AM,37.4,35.6,93,29.63,5.0,NE,12.7,26.5,N/A,,Overcast,50,2013-03-06 11:44:00
7:04 AM,37.4,35.6,93,29.63,5.0,NE,12.7,23.0,N/A,,Overcast,50,2013-03-06 12:04:00
7:24 AM,37.4,35.6,93,29.63,7.0,NE,12.7,20.7,N/A,,Overcast,50,2013-03-06 12:24:00
7:44 AM,37.4,35.6,93,29.62,4.0,NE,12.7,26.5,N/A,,Overcast,50,2013-03-06 12:44:00
8:04 AM,37.4,35.6,93,29.61,4.0,NE,11.5,19.6,N/A,,Overcast,50,2013-03-06 13:04:00
8:24 AM,37.4,37.4,100,29.61,5.0,NE,13.8,26.5,N/A,,Overcast,40,2013-03-06 13:24:00
8:45 AM,37.4,37.4,100,29.60,5.0,NE,13.8,21.9,N/A,,Overcast,40,2013-03-06 13:45:00
9:05 AM,37.4,37.4,100,29.60,5.0,NE,15.0,26.5,N/A,,Overcast,50,2013-03-06 14:05:00
9:25 AM,37.4,37.4,100,29.60,4.0,NE,15.0,20.7,N/A,,Overcast,40,2013-03-06 14:25:00
9:45 AM,37.4,37.4,100,29.60,4.0,NE,13.8,28.8,N/A,,Overcast,40,2013-03-06 14:45:00
10:05 AM,37.4,35.6,93,29.60,5.0,NNE,13.8,26.5,N/A,,Overcast,30,2013-03-06 15:05:00
10:25 AM,37.4,35.6,93,29.60,7.0,NE,10.4,25.3,N/A,,Mostly Cloudy,40,2013-03-06 15:25:00
10:45 AM,37.4,35.6,93,29.60,7.0,NNE,18.4,26.5,N/A,,Mostly Cloudy,30,2013-03-06 15:45:00
11:05 AM,37.4,35.6,93,29.61,4.0,NNE,16.1,25.3,N/A,,Overcast,20,2013-03-06 16:05:00
11:25 AM,37.4,35.6,93,29.61,3.0,NNE,15.0,25.3,N/A,,Overcast,30,2013-03-06 16:25:00
11:45 AM,37.4,35.6,93,29.60,4.0,North,17.3,32.2,N/A,,Overcast,10,2013-03-06 16:45:00
12:05 PM,37.4,35.6,93,29.61,3.0,North,16.1,28.8,N/A,,Overcast,360,2013-03-06 17:05:00
12:25 PM,37.4,35.6,93,29.61,5.0,North,19.6,31.1,N/A,,Overcast,360,2013-03-06 17:25:00
12:45 PM,37.4,35.6,93,29.61,4.0,North,17.3,26.5,N/A,,Overcast,10,2013-03-06 17:45:00
1:05 PM,37.4,35.6,93,29.61,4.0,North,17.3,28.8,N/A,,Overcast,10,2013-03-06 18:05:00
1:25 PM,37.4,35.6,93,29.61,4.0,NNE,18.4,27.6,N/A,,Overcast,20,2013-03-06 18:25:00
1:45 PM,37.4,35.6,93,29.62,2.0,NNE,17.3,32.2,N/A,,Overcast,20,2013-03-06 18:45:00
2:05 PM,37.4,35.6,93,29.62,3.0,North,25.3,34.5,N/A,,Overcast,10,2013-03-06 19:05:00
2:25 PM,37.4,35.6,93,29.63,4.0,North,23.0,34.5,N/A,,Overcast,10,2013-03-06 19:25:00
2:45 PM,37.4,35.6,93,29.65,4.0,North,19.6,33.4,N/A,,Overcast,10,2013-03-06 19:45:00
2:53 PM,37.4,35.6,93,29.66,4.0,North,23.0,41.4,N/A,,Overcast,10,2013-03-06 19:53:00